[[{"header":{"parameterUnit":"m.s-1","parameterCategory":1,"la1":30.2991,"la2":30.254,"lo1":-89.0895,"lo2":-89.0444,"dy":0.0017,"dx":0.0017,"nx":28,"ny":28,"refTime":"2024-02-27T09:00:00:Z","depth":0,"parameterNumber":2,"parameterNumberName":"U-component_of_WINDS"},"data":[0,0,0,0,0,0,0,0,0,0,0,0,0,0,0,0,0,0,0,0,0,0,0,0,0,0,0,0,0,0,0,0,0,0,0,0,0,0,0,0,0,0,0,0,0,0,0,0,0,0,0,0,0,0,0,0,0,0,0.8573,0.8573,0,0.8567,0.8567,0.8567,0.8531,0.853,0.853,0.8529,0.8522,0.8522,0.8523,0,0,0,0,0,0,0,0,0,0,0,0,0,0.8554,0.8555,0.8573,0.8573,0.8573,0.8567,0.8567,0.8567,0.8531,0.853,0.8529,0.8528,0.8521,0.8522,0.8523,0,0,0,0,0,0,0,0,0,0,0,0,0,0.8557,0.8555,0.8573,0.8555,0.8553,0.8567,0.8567,0.8567,0.8532,0.853,0.8529,0.8528,0.8521,0.8522,0.8523,0.8554,0,0,0.8526,0.8526,0,0,0,0,0,0,0,0,0.8557,0.8557,0.8558,0.8556,0.8554,0.8549,0.8557,0.8562,0.8532,0.854,0.8529,0.8527,0.8532,0.8532,0.8533,0.8553,0.8553,0.8526,0.8526,0.8527,0.8527,0,0,0,0,0,0,0,0.8557,0.8558,0.8571,0.8558,0.8555,0.8547,0.8546,0.8558,0.8543,0.8539,0.8536,0.8536,0.853,0.8532,0.8533,0.8553,0.8526,0.8527,0.8527,0.8527,0.8599,0.86,0,0,0,0,0,0,0.8559,0.8558,0.8571,0.857,0.8552,0.8548,0.8547,0.8552,0.8543,0.854,0.8537,0.8535,0.8531,0.8532,0.8532,0.8568,0.8527,0.8528,0.8528,0.8598,0.8599,0.8601,0,0,0,0,0,0,0.8559,0.8561,0.8571,0.8563,0.8564,0.855,0.8555,0.8552,0.8554,0.8541,0.8538,0.8542,0.853,0.8531,0.8549,0.8567,0.8528,0.8529,0.8596,0.8598,0.86,0.864,0,0,0,0,0,0,0.8558,0.8561,0.8572,0.8564,0.8565,0.8588,0.8556,0.8553,0.8556,0.8552,0.8545,0.8543,0.8529,0.8548,0.855,0.8568,0.8529,0.8594,0.8597,0.8599,0.8637,0.8643,0.8649,0,0,0,0,0,0.8558,0.8584,0.8573,0.8575,0.8579,0.8589,0.859,0.8574,0.8557,0.8569,0.8561,0.8543,0.8565,0.855,0.8552,0.8571,0.8593,0.8596,0.8599,0.8635,0.8642,0.8649,0,0,0,0,0,0,0.8594,0.8582,0.857,0.8594,0.8593,0.8583,0.8597,0.8582,0.8586,0.8582,0.8563,0.8561,0.8582,0.8578,0.8561,0.86,0.8576,0.858,0.8602,0.8609,0.8615,0.8616,0.853,0,0,0,0,0,0.8605,0.8615,0.8603,0.8626,0.8626,0.8612,0.8616,0.8604,0.8602,0.8601,0.8594,0.8593,0.8599,0.8604,0.8609,0.8636,0.8634,0.865,0.8656,0.8661,0.8664,0.8679,0.8686,0.8611,0.8611,0.8611,0,0,0.8627,0.8622,0.8629,0.8633,0.863,0.8641,0.8611,0.8623,0.8631,0.8603,0.8619,0.8614,0.8611,0.8634,0.8644,0.8631,0.8684,0.8665,0.8669,0.8669,0.8682,0.869,0.8696,0.8613,0.8612,0.8612,0,0,0.8673,0.867,0.8689,0.8687,0.8684,0.8675,0.8679,0.8672,0.8668,0.8684,0.8663,0.8672,0.8684,0.8682,0.8683,0.873,0.8714,0.8732,0.8762,0.8777,0.8783,0.8788,0.8805,0.8811,0.8736,0.8736,0.8736,0,0.8702,0.8717,0.87,0.8714,0.8716,0.8691,0.871,0.8709,0.8708,0.871,0.8696,0.8711,0.8707,0.8729,0.8741,0.8742,0.8747,0.8733,0.8783,0.8788,0.8793,0.8809,0.8815,0.8738,0.8738,0.8737,0.8737,0,0.8751,0.8762,0.8777,0.8778,0.8781,0.8797,0.8783,0.8789,0.8777,0.8769,0.8787,0.8781,0.8786,0.879,0.8778,0.8811,0.8803,0.8787,0.8762,0.8802,0.8817,0.8823,0.8741,0.874,0.874,0.8739,0,0,0.882,0.8811,0.8817,0.8817,0.8812,0.882,0.8835,0.884,0.8845,0.8846,0.8858,0.8869,0.8853,0.8855,0.8842,0.8855,0.8893,0.8837,0.8836,0.8848,0.8929,0.8942,0.8949,0.8882,0.8883,0.8884,0.8929,0,0.8864,0.889,0.8875,0.8903,0.8913,0.889,0.8903,0.8901,0.8895,0.8902,0.8894,0.8902,0.8881,0.8882,0.8894,0.8886,0.8909,0.8882,0.8893,0.8894,0.8895,0.8957,0.897,0.9013,0.8935,0.8936,0.8937,0,0.8919,0.8923,0.8951,0.8945,0.8949,0.8961,0.8964,0.8972,0.897,0.8964,0.8966,0.8951,0.8965,0.8941,0.896,0.8942,0.8946,0.8943,0.8944,0.8945,0.8918,0.8959,0.9027,0.9033,0.8945,0.8945,0.8944,0,0.8967,0.8978,0.8997,0.8998,0.8991,0.9,0.8998,0.8995,0.8999,0.9001,0.9004,0.9008,0.901,0.9014,0.9001,0.8984,0.9022,0.8997,0.9018,0.9018,0.9027,0.9027,0.9096,0.9029,0.9029,0.9029,0.9029,0,0.9018,0.9036,0.9018,0.903,0.905,0.9034,0.9054,0.9049,0.9047,0.9057,0.9037,0.9047,0.9029,0.9037,0.9026,0.9044,0.9046,0.9041,0.9038,0.9043,0.9044,0.9045,0.9042,0.9031,0.903,0.903,0.903,0,0.9074,0.9063,0.9082,0.9074,0.9073,0.9088,0.9082,0.9092,0.9084,0.9098,0.91,0.9087,0.9096,0.9083,0.909,0.9083,0.9108,0.9101,0.9109,0.9107,0.9129,0.9127,0.9202,0.9212,0.9138,0.9139,0.914,0,0.9107,0.9121,0.9116,0.9121,0.912,0.913,0.9134,0.9118,0.9123,0.9122,0.9133,0.914,0.9145,0.916,0.9151,0.9157,0.9149,0.9175,0.915,0.9155,0.915,0.915,0.9151,0.9181,0.9181,0.9182,0.9183,0,0.9168,0.9162,0.9168,0.9174,0.9179,0.9182,0.9184,0.919,0.9174,0.918,0.9189,0.9193,0.9201,0.9208,0.9212,0.9209,0.9193,0.9191,0.9196,0.9201,0.9206,0.9204,0.9124,0.9189,0.9188,0.9188,0.9188,0.9187,0.9213,0.9225,0.9223,0.9232,0.9231,0.9234,0.9243,0.9237,0.9245,0.925,0.924,0.9252,0.925,0.9253,0.9252,0.9261,0.925,0.9257,0.9259,0.9261,0.9265,0.9205,0.9262,0.9261,0.9261,0.9261,0.9261,0,0.9273,0.9271,0.9279,0.9282,0.9289,0.9275,0.9276,0.9282,0.9293,0.9293,0.9298,0.9309,0.9316,0.9309,0.9315,0.9323,0.9316,0.9325,0.9325,0.9324,0.9275,0.927,0.9331,0.9331,0.9331,0.9331,0.9331,0.9331,0.9305,0.9324,0.9318,0.9336,0.9334,0.9346,0.9348,0.935,0.935,0.9363,0.9369,0.9365,0.9362,0.9367,0.9373,0.9371,0.9374,0.9386,0.9381,0.9335,0.9328,0.9321,0.9317,0.9387,0.9387,0.943,0.943,0.9431]},{"header":{"parameterUnit":"m.s-1","parameterCategory":1,"la1":30.2991,"la2":30.254,"lo1":-89.0895,"lo2":-89.0444,"dy":0.0017,"dx":0.0017,"nx":28,"ny":28,"refTime":"2024-02-27T09:00:00:Z","depth":0,"parameterNumber":3,"parameterNumberName":"V-component_of_WINDS"},"data":[0,0,0,0,0,0,0,0,0,0,0,0,0,0,0,0,0,0,0,0,0,0,0,0,0,0,0,0,0,0,0,0,0,0,0,0,0,0,0,0,0,0,0,0,0,0,0,0,0,0,0,0,0,0,0,0,0,0,5.9798,5.9797,0,5.9764,5.9764,5.9764,5.9694,5.9693,5.9691,5.969,5.9656,5.9656,5.9656,0,0,0,0,0,0,0,0,0,0,0,0,0,5.9802,5.9802,5.9798,5.9797,5.9797,5.9765,5.9764,5.9764,5.9694,5.9693,5.9691,5.9689,5.9655,5.9656,5.9656,0,0,0,0,0,0,0,0,0,0,0,0,0,5.9787,5.9802,5.9798,5.9758,5.9754,5.9765,5.9764,5.9764,5.9695,5.9693,5.969,5.9688,5.9655,5.9656,5.9656,5.9702,0,0,5.9658,5.9659,0,0,0,0,0,0,0,0,5.9788,5.9787,5.9765,5.9761,5.9757,5.9731,5.9753,5.9743,5.9695,5.9717,5.969,5.9687,5.9682,5.9681,5.9679,5.97,5.9699,5.9658,5.9659,5.9659,5.9659,0,0,0,0,0,0,0,5.9789,5.9788,5.9784,5.9764,5.976,5.9743,5.9738,5.9751,5.9712,5.9715,5.971,5.9707,5.968,5.9679,5.9678,5.9698,5.9658,5.9659,5.9659,5.9659,5.9758,5.976,0,0,0,0,0,0,5.9796,5.979,5.9785,5.9783,5.9768,5.9744,5.9739,5.9742,5.9712,5.9705,5.9709,5.9704,5.9679,5.9677,5.9676,5.973,5.9659,5.9659,5.966,5.9756,5.9759,5.9761,0,0,0,0,0,0,5.9796,5.9796,5.9787,5.9785,5.9783,5.9746,5.9749,5.9742,5.9741,5.9707,5.97,5.9715,5.9677,5.9675,5.9697,5.9727,5.966,5.966,5.9753,5.9757,5.976,5.9836,0,0,0,0,0,0,5.9797,5.9797,5.9814,5.9786,5.9783,5.9808,5.9751,5.9743,5.9742,5.9735,5.9711,5.9704,5.9675,5.9696,5.9697,5.9727,5.9661,5.975,5.9755,5.9759,5.9831,5.9841,5.9851,0,0,0,0,0,5.9797,5.9836,5.9815,5.9815,5.9803,5.981,5.9808,5.9774,5.9745,5.9762,5.974,5.9705,5.9724,5.9699,5.97,5.973,5.9748,5.9754,5.9759,5.9826,5.9839,5.9851,0,0,0,0,0,0,5.9867,5.9831,5.9808,5.9838,5.9828,5.9798,5.9818,5.9789,5.9786,5.978,5.9737,5.9732,5.976,5.9746,5.972,5.9774,5.9731,5.9736,5.9782,5.9794,5.9804,5.9807,5.9661,0,0,0,0,0,5.9886,5.9894,5.9862,5.9893,5.9889,5.9855,5.9856,5.9831,5.9818,5.9813,5.9793,5.9782,5.9786,5.9789,5.979,5.9828,5.9823,5.9849,5.9859,5.9868,5.9874,5.9895,5.9907,5.9778,5.9778,5.9778,0,0,5.9925,5.9907,5.9914,5.9906,5.9895,5.9906,5.9851,5.9864,5.9871,5.9815,5.9835,5.982,5.9805,5.9835,5.9848,5.9825,5.9908,5.9874,5.9881,5.9882,5.9902,5.9914,5.9925,5.9782,5.9781,5.978,0,0,6.0002,5.9988,6.0013,6.0004,5.9988,5.9965,5.9971,5.9946,5.9935,5.9954,5.9912,5.9921,5.9927,5.9919,5.9915,5.9992,5.996,5.9993,6.0047,6.0068,6.0078,6.0087,6.0117,6.0127,5.9999,5.9999,5.9999,0,6.0053,6.0067,6.003,6.0046,6.0044,5.9994,6.002,6.0012,5.9997,5.9998,5.9972,5.9981,5.9967,5.9996,6.0015,6.0013,6.002,5.9996,6.008,6.0088,6.0096,6.0124,6.0135,6.0003,6.0002,6.0002,6.0002,0,6.0131,6.0142,6.0164,6.0152,6.0153,6.0173,6.014,6.0145,6.012,6.01,6.0122,6.0103,6.0101,6.0106,6.0081,6.0132,6.0119,6.0088,6.0044,6.0114,6.0139,6.0149,6.0009,6.0008,6.0006,6.0005,0,0,6.0251,6.022,6.0229,6.0224,6.0204,6.0211,6.023,6.0228,6.0235,6.0226,6.0242,6.025,6.0221,6.0218,6.0191,6.021,6.0275,6.0176,6.0175,6.0197,6.0333,6.0358,6.0371,6.0253,6.0255,6.0256,6.0335,0,6.0325,6.0357,6.0324,6.0362,6.0373,6.0326,6.0343,6.0332,6.0315,6.0321,6.0301,6.0308,6.0269,6.0267,6.0283,6.0263,6.0302,6.0257,6.0269,6.027,6.0276,6.0383,6.041,6.0485,6.0344,6.0346,6.0347,0,6.0416,6.0413,6.0453,6.0432,6.0435,6.0451,6.0448,6.0454,6.0442,6.0428,6.0425,6.0394,6.0412,6.0368,6.0394,6.0364,6.0367,6.0358,6.036,6.0362,6.0314,6.039,6.0507,6.052,6.0362,6.036,6.0359,0,6.0503,6.0509,6.0534,6.0531,6.0506,6.0519,6.0509,6.0495,6.0497,6.0494,6.0495,6.0494,6.0495,6.0495,6.0465,6.0436,6.0495,6.0448,6.0485,6.0486,6.0501,6.0501,6.0623,6.05,6.05,6.0499,6.0499,0,6.059,6.0616,6.0573,6.0588,6.0617,6.058,6.0609,6.0595,6.0583,6.0596,6.0554,6.0567,6.0526,6.0535,6.0511,6.0537,6.0537,6.0527,6.0521,6.0532,6.0533,6.0534,6.0529,6.0502,6.0502,6.0501,6.0501,0,6.0692,6.0663,6.0688,6.0664,6.0658,6.0681,6.066,6.0674,6.0654,6.067,6.0672,6.0641,6.0649,6.0619,6.0622,6.0606,6.0645,6.0629,6.065,6.0646,6.0686,6.0683,6.0814,6.083,6.0695,6.0696,6.0697,0,6.075,6.077,6.0748,6.0754,6.0747,6.0756,6.0758,6.0723,6.0727,6.0716,6.0731,6.0736,6.0738,6.0754,6.0732,6.0734,6.072,6.0765,6.072,6.0731,6.0723,6.0723,6.0726,6.0775,6.0777,6.0778,6.0779,0,6.0858,6.0843,6.0848,6.0849,6.0853,6.0851,6.0847,6.0854,6.0816,6.0822,6.0831,6.0833,6.0836,6.0843,6.0841,6.0831,6.08,6.0794,6.0803,6.0816,6.0828,6.0824,6.0678,6.0791,6.079,6.0789,6.0789,6.0788,6.0941,6.0957,6.0945,6.0953,6.0946,6.0943,6.0956,6.0938,6.0945,6.0946,6.0924,6.0937,6.0926,6.0921,6.0914,6.0925,6.0904,6.0916,6.092,6.0924,6.0932,6.0825,6.0924,6.0924,6.0923,6.0923,6.0923,0,6.1049,6.1039,6.1046,6.1042,6.1049,6.1018,6.1012,6.102,6.1032,6.1025,6.1028,6.1039,6.1045,6.1024,6.1028,6.104,6.1026,6.1043,6.1042,6.1041,6.095,6.0943,6.1054,6.1054,6.1054,6.1054,6.1054,6.1054,6.1106,6.1132,6.1117,6.114,6.113,6.1143,6.1143,6.1141,6.1135,6.1149,6.1155,6.1141,6.1128,6.1131,6.1136,6.1129,6.1133,6.1156,6.1145,6.106,6.1047,6.1035,6.1028,6.1156,6.1156,6.1235,6.1236,6.1237]}]]